CDT,Max TemperatureF,Mean TemperatureF,Min TemperatureF,Max Dew PointF,MeanDew PointF,Min DewpointF,Max Humidity, Mean Humidity, Min Humidity, Max Sea Level PressureIn, Mean Sea Level PressureIn, Min Sea Level PressureIn, Max VisibilityMiles, Mean VisibilityMiles, Min VisibilityMiles, Max Wind SpeedMPH, Mean Wind SpeedMPH, Max Gust SpeedMPH,PrecipitationIn, CloudCover, Events, WindDirDegrees
2013-7-1,80,69,57,54,50,47,80,57,33,30.08,30.05,30.01,10,10,10,21,8,25,0.00,0,,32
2013-7-2,80,68,56,55,53,51,86,64,42,30.10,30.06,30.02,10,10,10,16,6,21,0.00,0,,54
2013-7-3,77,65,52,57,53,49,96,67,38,30.09,30.05,30.02,10,10,6,9,2,12,0.00,0,,86
2013-7-4,85,71,57,63,58,53,93,67,40,30.07,30.03,29.99,10,10,10,13,5,21,0.00,1,,180
2013-7-5,85,74,63,64,61,59,87,66,44,30.06,30.02,29.98,10,9,7,14,7,17,0.00,0,,166
2013-7-6,87,75,63,67,64,59,87,67,46,30.03,29.99,29.94,10,9,7,13,5,16,0.00,0,,168
2013-7-7,89,80,70,70,67,64,84,67,50,29.98,29.95,29.91,10,10,8,13,6,16,0.00,0,,199
2013-7-8,88,80,72,73,70,66,87,74,61,29.99,29.96,29.94,10,9,2,21,9,28,0.55,3,Rain-Thunderstorm,215
2013-7-9,87,81,74,77,73,71,94,81,68,30.01,29.94,29.86,10,8,1,15,4,22,0.18,3,Rain-Thunderstorm,221
2013-7-10,84,73,62,75,65,57,94,71,47,30.03,29.93,29.85,10,10,7,16,6,25,0.00,3,,331
2013-7-11,81,70,59,61,58,55,97,70,42,30.11,30.08,30.04,10,9,4,14,4,17,0.00,0,,85
2013-7-12,83,69,55,62,57,54,93,67,40,30.15,30.10,30.06,10,10,10,12,3,14,0.00,0,,126
2013-7-13,84,70,56,62,59,54,86,65,44,30.14,30.10,30.07,10,10,10,15,5,16,0.00,0,,120
2013-7-14,87,75,63,70,65,60,93,71,48,30.17,30.14,30.11,10,10,6,14,5,17,0.00,0,,116
2013-7-15,91,81,71,74,71,68,90,73,56,30.25,30.21,30.17,10,10,6,15,6,18,0.00,1,,111
2013-7-16,91,82,72,75,73,70,93,75,56,30.28,30.25,30.22,10,10,5,9,4,13,0.00,1,,176
2013-7-17,95,83,71,75,72,69,93,71,49,30.30,30.25,30.17,10,10,7,10,3,16,0.00,1,,248
2013-7-18,94,83,72,73,72,69,93,70,46,30.18,30.07,29.95,10,10,6,13,5,16,0.00,0,,213
2013-7-19,95,86,76,71,69,65,79,62,44,29.94,29.85,29.77,10,10,10,21,11,28,T,1,,242
2013-7-20,89,78,67,67,62,59,78,59,40,29.92,29.88,29.85,10,10,10,12,4,16,0.00,1,,12
2013-7-21,84,74,64,71,66,62,93,74,55,29.92,29.89,29.83,10,10,10,13,5,16,0.00,1,,160
2013-7-22,88,76,63,73,66,62,93,74,55,29.88,29.83,29.72,10,8,1,32,5,45,0.63,4,Rain-Thunderstorm,200
2013-7-23,79,72,64,64,60,55,100,75,50,29.97,29.86,29.77,10,10,10,14,7,20,0.00,1,,349
2013-7-24,78,67,55,58,54,51,90,67,43,30.07,30.04,29.98,10,10,10,10,3,20,0.00,1,,88
2013-7-25,81,68,54,62,57,53,93,72,51,30.10,30.06,30.02,10,10,10,12,4,15,T,1,,205
2013-7-26,80,70,60,68,62,55,93,70,47,30.04,29.96,29.88,10,8,1,25,9,32,0.52,5,Rain-Thunderstorm,246
2013-7-27,67,61,55,56,50,46,86,69,52,30.00,29.98,29.94,10,10,10,20,10,25,0.00,5,,305
2013-7-28,74,64,53,54,50,48,86,65,44,30.06,29.99,29.92,10,10,10,17,8,23,0.00,4,,279
2013-7-29,76,63,50,59,53,48,93,68,43,30.15,30.12,30.07,10,10,10,9,2,12,0.00,0,,186
2013-7-30,69,66,62,66,62,56,100,84,68,30.13,30.09,30.04,10,4,1,12,6,14,0.68,8,Rain,91
2013-7-31,81,72,62,65,64,62,93,76,58,30.06,30.03,29.97,10,7,2,12,4,18,0.00,6,,320